Currently 68°F in Riverside (Orangecrest), California, USA
68°F
82°F / 55°F
5 mph S
0.00"
Tuesday, June 19, 2018 8:48 PM PDT

Riverside (Orangecrest), California Weather Summary
Last 36 Hours

Temperature Winds Hourly Humidity Dewpoint
Time Report Norm Report Norm Max Gusts Precip. Rpt. Norm Rpt. Norm Pressure
1Tue 08:48 PM  68.1°F  73°F  5 mph S  5 mph  10 mph  0.00"  59%  44%  53°F  50°F  29.95"
Tue 08:00 PM  70.6°F  77°F  5 mph S  5 mph  13 mph  0.00"  53%  38%  52°F  48°F  29.93"
Tue 07:00 PM  76.0°F  81°F  8 mph S  6 mph  15 mph  0.00"  42%  30%  51°F  46°F  29.92"
Tue 06:00 PM  79.8°F  83°F  7 mph S  7 mph  14 mph  0.00"  34%  26%  48°F  44°F  29.91"
Tue 05:00 PM  81.2°F  85°F  7 mph S  8 mph  16 mph  0.00"  31%  24%  47°F  43°F  29.92"
Tue 04:00 PM  80.5°F  86°F  9 mph S  8 mph  15 mph  0.00"  32%  23%  47°F  43°F  29.93"
2Tue 03:23 PM  81.8°F  87°F  7 mph S  7 mph  13 mph  ----  30%  23%  46°F  43°F  29.94"
Tue 03:00 PM  80.8°F  86°F  6 mph S  8 mph  15 mph  0.00"  30%  23%  45°F  43°F  29.95"
Tue 02:00 PM  79.7°F  86°F  7 mph SW  7 mph  14 mph  0.00"  34%  22%  48°F  42°F  29.96"
Tue 01:00 PM  77.2°F  85°F  4 mph W  6 mph  13 mph  0.00"  35%  24%  47°F  43°F  29.97"
Tue 12:00 PM  74.7°F  83°F  4 mph W  6 mph  10 mph  0.00"  38%  25%  47°F  43°F  29.98"
Tue 11:00 AM  71.2°F  81°F  4 mph W  5 mph  9 mph  0.00"  46%  29%  48°F  45°F  29.98"
Tue 10:00 AM  68.3°F  78°F  1 mph W  3 mph  7 mph  0.00"  52%  34%  49°F  47°F  29.98"
Tue 09:00 AM  65.0°F  75°F  2 mph W  2 mph  4 mph  0.00"  59%  41%  50°F  49°F  30.00"
Tue 08:00 AM  61.0°F  71°F  2 mph W  2 mph  5 mph  0.00"  69%  49%  50°F  50°F  30.00"
Tue 07:00 AM  56.6°F  67°F  3 mph W  1 mph  5 mph  0.00"  78%  58%  50°F  51°F  30.00"
3Tue 06:02 AM  55.0°F  65°F  3 mph W  1 mph  5 mph  ----  83%  62%  50°F  51°F  29.99"
Tue 06:00 AM  55.1°F  65°F  3 mph W  1 mph  5 mph  0.00"  83%  62%  50°F  51°F  29.99"
Tue 05:00 AM  55.6°F  65°F  3 mph W  1 mph  6 mph  0.00"  81%  61%  50°F  51°F  29.98"
Tue 04:00 AM  56.4°F  65°F  3 mph W  1 mph  5 mph  0.00"  79%  60%  50°F  51°F  29.97"
Tue 03:00 AM  56.7°F  66°F  calm  2 mph  4 mph  0.00"  79%  58%  50°F  50°F  29.97"
Tue 02:00 AM  56.9°F  67°F  2 mph W  2 mph  6 mph  0.00"  80%  56%  51°F  50°F  29.98"
Tue 01:00 AM  57.6°F  67°F  calm  2 mph  7 mph  0.00"  79%  55%  51°F  50°F  30.00"
Tue 12:00 AM  58.7°F  68°F  4 mph W  3 mph  10 mph  0.00"  76%  52%  51°F  50°F  30.00"
Mon 11:00 PM  59.9°F  70°F  4 mph W  3 mph  9 mph  0.00"  71%  50%  50°F  49°F  30.00"
Mon 10:00 PM  62.1°F  71°F  3 mph W  3 mph  10 mph  0.00"  65%  47%  50°F  49°F  30.01"
Mon 09:00 PM  63.6°F  73°F  6 mph W  5 mph  11 mph  0.00"  61%  43%  49°F  49°F  29.99"
Mon 08:00 PM  65.9°F  77°F  7 mph W  5 mph  14 mph  0.00"  55%  35%  49°F  46°F  29.97"
Mon 07:00 PM  68.2°F  81°F  6 mph NW  6 mph  16 mph  0.00"  51%  28%  49°F  44°F  29.97"
Mon 06:00 PM  69.9°F  84°F  10 mph NW  7 mph  18 mph  0.00"  47%  24%  48°F  42°F  29.96"
Mon 05:00 PM  73.7°F  86°F  6 mph W  8 mph  15 mph  0.00"  40%  21%  47°F  40°F  29.97"
Mon 04:00 PM  75.4°F  87°F  6 mph W  8 mph  12 mph  0.00"  35%  21%  45°F  41°F  29.97"
Mon 03:00 PM  73.3°F  87°F  8 mph SW  8 mph  11 mph  0.00"  38%  21%  45°F  41°F  29.98"
Mon 02:00 PM  71.6°F  87°F  5 mph W  6 mph  14 mph  0.00"  40%  20%  45°F  40°F  30.00"
Mon 01:00 PM  70.5°F  86°F  3 mph W  6 mph  12 mph  0.00"  42%  22%  45°F  40°F  30.01"
Mon 12:00 PM  68.1°F  84°F  5 mph W  6 mph  9 mph  0.00"  45%  23%  45°F  41°F  30.02"
Mon 11:00 AM  64.9°F  82°F  6 mph W  4 mph  8 mph  0.00"  52%  27%  46°F  43°F  30.03"
Mon 10:00 AM  62.1°F  79°F  3 mph W  3 mph  7 mph  0.00"  60%  31%  47°F  45°F  30.03"
Mon 09:00 AM  58.9°F  75°F  2 mph W  2 mph  7 mph  0.00"  69%  38%  48°F  47°F  30.03"

  1. Current weather data. No green row appears if the current weather data is also the high or low for the current day.
  2. High temperature for the current day.
  3. Low temperature for the current day.

The Riverside (Orangecrest), California weather pages are a service of WeatherCurrents.
Copyright ©Tue Jun 19 20:49:09 PDT 2018  WeatherCurrents. All rights reserved. - Submit questions and comments - Privacy Policy

This page automatically refreshes every 10 minutes.